This is the latest recevied weather packets stored in our database for station/object JE6MIQ-13. If no packets are shown the sender has not sent any weather packets the latest 10 day(s).
| Time | Temp. | Humidity | Pressure | Rain* | Wind** | Luminosity | Snow |
|---|---|---|---|---|---|---|---|
| 1777774352 | 17.78° C | 76% | 1002.4 hPa | 2.03 mm | - | - | - |
| 1777773752 | 17.22° C | 78% | 1002.4 hPa | 1.02 mm | - | - | - |
| 1777773153 | 17.22° C | 78% | 1002.7 hPa | 1.02 mm | - | - | - |
| 1777772551 | 16.67° C | 78% | 1002.7 hPa | 0 mm | - | - | - |
| 1777771951 | 16.67° C | 76% | 1002.9 hPa | 0 mm | - | - | - |
| 1777771351 | 16.67° C | 75% | 1003.1 hPa | 0 mm | - | - | - |
| 1777770752 | 16.67° C | 75% | 1003.1 hPa | 0 mm | - | - | - |
| 1777770153 | 16.67° C | 74% | 1003.3 hPa | 0 mm | - | - | - |
| 1777769554 | 16.67° C | 74% | 1003.8 hPa | 0 mm | - | - | - |
| 1777768954 | 16.67° C | 74% | 1003.8 hPa | 0 mm | - | - | - |
| 1777768354 | 16.67° C | 73% | 1004 hPa | 0 mm | - | - | - |
| 1777767753 | 16.67° C | 71% | 1004.2 hPa | 0 mm | - | - | - |
| 1777767153 | 16.67° C | 68% | 1004.6 hPa | 0 mm | - | - | - |
| 1777766554 | 16.67° C | 65% | 1004.6 hPa | 0 mm | - | - | - |
| 1777765954 | 16.67° C | 61% | 1004.6 hPa | 0 mm | - | - | - |
| 1777765354 | 17.22° C | 55% | 1004.6 hPa | 0 mm | - | - | - |
| 1777764754 | 17.22° C | 51% | 1004.9 hPa | 0 mm | - | - | - |
| 1777764154 | 17.78° C | 47% | 1004.9 hPa | 0 mm | - | - | - |
| 1777763553 | 18.33° C | 47% | 1004.9 hPa | 0 mm | - | - | - |
| 1777762952 | 18.33° C | 43% | 1005.2 hPa | 0 mm | - | - | - |
| 1777762352 | 18.33° C | 42% | 1005.1 hPa | 0 mm | - | - | - |
| 1777761753 | 18.33° C | 40% | 1005.1 hPa | 0 mm | - | - | - |
| 1777761153 | 18.33° C | 39% | 1005.5 hPa | 0 mm | - | - | - |
| 1777760553 | 18.33° C | 39% | 1005.7 hPa | 0 mm | - | - | - |
| 1777759953 | 18.33° C | 38% | 1005.7 hPa | 0 mm | - | - | - |
* Rain latest hour (hover to see other rain measurements)
** Current wind speed in m/s (hover to see current wind gust speed)